ECMWFNIL_850_temp_093.txt.gz
Temp
10 9 8 8 8 8 8 7 7 7 7 7 8 9 10 10 10 10 10 10 10 10 10 10 10 10 10 10 9 9 9 8 8 7 7 8 7 7 6 5 5 5
8 8 8 8 8 8 8 7 7 7 7 8 9 9 10 10 10 10 10 10 9 9 9 9 10 9 9 10 9 9 9 8 7 6 7 7 7 6 5 5 5 5
7 7 7 7 7 7 7 7 7 7 8 8 9 9 9 9 9 9 9 9 9 9 9 9 9 9 9 9 9 9 8 8 7 6 6 6 6 6 5 3 3 4
7 6 6 6 6 6 6 6 7 7 8 8 8 8 9 9 8 9 9 8 9 9 9 9 9 9 9 9 8 8 8 7 6 5 5 5 5 5 4 3 3 4
6 6 6 6 6 6 6 6 7 7 8 8 8 8 8 8 8 8 8 9 9 9 9 9 9 9 9 8 8 7 7 6 6 5 5 5 4 4 3 3 3 4
6 6 5 5 5 6 6 6 7 7 8 8 8 8 8 8 8 8 8 9 9 9 9 9 9 9 9 8 7 6 6 5 5 4 4 4 3 3 2 3 3 3
5 5 5 5 5 5 6 7 7 7 7 7 7 7 7 8 8 8 8 8 8 8 8 8 8 9 8 8 7 5 4 4 3 3 3 3 2 2 2 2 3 3
5 5 5 5 5 6 6 7 7 7 7 7 7 7 7 8 8 8 8 8 8 8 8 8 8 8 8 7 6 5 4 3 3 3 2 2 2 2 2 2 2 2
6 5 5 5 6 6 6 7 7 7 7 7 7 7 7 8 8 8 8 8 8 8 8 8 7 7 7 7 6 6 4 2 2 3 2 2 2 2 1 1 1 1
6 6 6 5 6 6 6 6 7 7 7 7 7 7 7 8 8 7 7 7 7 7 7 7 7 7 6 6 6 6 4 2 2 2 2 2 2 1 1 1 1 1
6 6 6 6 6 6 6 7 7 7 7 7 7 7 8 7 7 7 7 7 7 7 7 7 7 6 6 5 5 5 4 3 2 2 2 1 1 1 1 1 1 1
6 6 6 6 6 6 7 7 7 7 7 7 7 7 7 7 7 7 7 7 7 7 7 7 7 6 6 5 5 4 4 3 2 2 2 1 1 1 1 1 1 0
6 6 6 6 6 7 7 7 7 7 7 7 7 7 7 6 6 7 7 7 7 7 7 6 6 6 6 5 4 4 3 3 2 2 1 1 1 1 1 1 1 0
7 7 7 7 7 7 7 7 7 6 6 6 6 6 6 6 6 6 6 6 6 6 6 6 6 6 6 5 4 4 3 2 2 1 1 1 1 1 1 1 1 1
7 7 7 7 7 7 7 7 6 6 6 6 6 6 6 6 6 6 6 6 6 6 6 6 6 6 5 5 4 3 2 2 1 1 1 2 1 1 1 1 1 1
7 7 7 7 7 7 7 7 6 6 6 5 5 6 6 6 5 6 6 6 6 6 6 6 6 5 5 4 4 3 2 2 2 1 1 2 2 1 1 1 1 1
7 7 7 7 7 7 7 6 6 6 6 5 5 6 6 5 5 5 5 5 6 6 6 6 5 5 5 4 3 3 2 2 2 1 2 2 2 1 1 1 1 1
7 7 7 6 6 7 6 6 6 6 6 6 5 6 5 5 5 5 5 5 5 5 5 5 5 5 4 4 4 3 2 2 1 1 1 1 1 1 1 1 1 1
6 6 6 6 6 6 6 6 6 6 6 6 6 5 5 5 5 4 4 4 4 5 5 5 4 4 4 4 4 3 3 2 2 1 1 1 1 1 1 1 1 1
6 6 6 6 6 6 6 6 6 6 6 6 6 5 5 5 4 4 4 4 4 4 4 4 4 4 4 4 4 4 3 3 3 2 1 1 1 1 1 1 1 1
6 6 6 6 6 6 6 6 6 6 6 6 6 5 5 5 4 4 4 4 4 4 4 4 4 4 4 4 4 4 3 3 4 3 2 1 1 1 1 1 1 1
5 5 5 5 6 6 6 6 6 6 6 5 5 5 5 4 4 5 4 4 4 4 4 4 4 4 4 4 4 4 3 3 4 3 3 2 1 1 1 1 0 0
5 5 5 5 5 5 5 5 5 5 5 5 5 5 4 4 4 4 4 4 4 4 4 4 4 4 4 4 4 3 3 3 3 3 3 2 2 1 1 1 0 -0
5 5 5 5 5 5 5 5 5 5 5 5 5 4 4 4 4 4 4 4 4 4 4 4 4 4 4 4 3 3 3 3 3 3 3 3 2 1 1 1 0 -0
5 5 5 5 5 5 5 5 5 5 5 4 4 4 4 4 4 4 4 4 4 4 3 3 4 4 4 4 3 3 3 3 3 3 3 3 2 2 1 1 1 0
5 5 5 5 5 5 5 5 5 5 4 4 4 4 4 4 4 4 4 4 4 4 3 3 3 3 3 3 3 3 3 3 3 3 3 3 2 1 1 1 1 0

ECMWFNIL_850_temp_096.txt.gz
Temp
13 12 11 11 10 9 8 8 8 8 7 7 7 8 9 10 10 10 11 11 11 11 11 11 11 11 10 10 10 10 10 10 10 9 8 8 8 7 7 6 6 6
12 11 10 10 9 8 8 8 8 7 7 7 7 9 9 10 10 10 10 10 11 11 11 10 10 10 10 10 10 10 10 10 9 8 7 8 7 7 7 6 6 5
12 11 10 9 9 8 8 7 7 7 7 7 8 8 9 9 10 10 10 10 10 10 10 10 10 10 10 10 9 9 9 9 9 7 7 7 7 6 6 5 5 4
11 10 9 8 8 7 7 7 7 7 7 8 8 8 9 9 9 10 10 10 10 10 10 10 10 10 10 9 9 9 8 8 8 7 7 7 6 6 5 5 4 4
11 9 8 7 7 7 7 6 6 7 7 8 8 8 9 9 9 10 10 10 10 10 10 10 10 10 10 9 9 8 8 8 7 7 7 7 6 5 5 4 4 3
10 8 7 7 7 6 6 6 6 7 7 8 8 8 9 9 9 9 9 9 9 9 9 9 9 9 9 9 8 8 8 7 7 6 6 6 5 4 4 4 3 3
9 8 7 6 6 6 6 6 6 7 7 8 8 8 9 9 9 9 9 9 9 9 9 9 9 9 9 8 8 8 8 7 6 5 5 4 4 4 3 3 3 3
9 9 8 7 6 6 6 6 7 7 7 8 8 9 9 9 9 9 9 9 9 8 8 8 8 8 8 8 8 8 8 6 5 4 3 3 3 3 3 2 2 2
9 8 7 7 7 6 7 7 7 7 7 8 8 9 9 9 9 9 9 8 8 8 8 8 8 8 8 8 8 7 7 6 4 3 3 2 3 2 2 3 3 2
7 7 6 6 6 7 7 7 7 7 7 8 9 9 9 9 8 8 8 8 8 8 8 8 8 8 7 7 7 6 6 5 3 3 2 2 2 2 2 2 2 2
6 6 6 6 6 7 7 7 7 7 7 7 8 9 8 8 8 8 8 8 8 8 8 8 8 8 7 6 6 5 4 3 3 2 2 2 2 1 1 2 2 1
5 5 5 6 6 7 7 7 7 7 7 7 8 8 8 8 8 8 8 8 8 8 8 8 8 7 7 6 5 5 4 3 2 2 1 1 1 1 1 1 1 1
5 5 5 5 5 6 6 6 6 6 6 7 8 8 8 8 8 8 8 8 8 8 7 7 7 7 6 6 5 4 3 3 2 2 1 1 1 1 1 1 1 1
5 5 5 5 5 6 6 6 6 6 6 7 7 7 8 8 8 8 8 8 8 7 7 7 7 6 6 5 5 4 3 2 2 1 1 1 1 1 1 1 1 1
5 5 5 5 5 5 6 6 6 6 6 7 7 7 7 7 7 7 7 7 7 7 7 7 7 6 6 5 4 4 3 2 2 1 1 1 1 1 1 1 1 1
5 4 4 5 5 5 6 6 6 6 6 7 7 7 7 7 7 7 7 7 7 7 7 7 6 6 5 5 4 3 2 2 1 1 1 1 1 1 1 1 1 1
4 4 4 5 5 5 6 6 6 6 7 7 7 7 7 6 6 6 6 6 6 6 6 6 6 6 5 5 4 3 3 2 2 1 1 1 1 1 1 1 1 1
4 4 4 5 5 5 6 6 6 6 6 7 7 7 6 6 6 6 6 6 6 6 6 6 6 5 5 5 4 3 3 2 2 2 2 1 1 1 1 1 1 1
4 4 5 5 5 5 6 6 6 6 6 6 6 6 6 6 5 5 5 5 5 6 6 6 5 5 5 4 4 3 3 3 2 2 2 2 1 1 1 1 1 0
5 5 5 5 5 5 6 6 6 6 6 6 6 6 6 5 5 5 5 5 5 5 5 5 5 5 4 4 4 3 3 3 3 2 2 2 2 1 1 1 1 0
5 5 5 5 5 6 6 6 6 6 6 6 6 5 5 5 5 5 5 5 5 5 5 5 5 4 4 4 4 3 3 3 3 3 2 2 2 1 1 1 1 1
5 5 5 5 6 6 6 6 6 6 6 6 6 5 5 5 5 5 5 5 4 4 4 5 4 4 4 4 3 3 3 3 3 3 3 2 2 2 1 1 1 1
5 5 5 6 6 6 6 6 6 6 6 6 6 6 5 5 4 4 4 4 4 4 4 4 4 4 4 4 3 3 3 3 3 3 3 2 2 2 1 1 1 1
5 5 5 6 6 6 6 6 6 6 6 6 6 6 5 4 4 4 4 4 4 4 4 4 4 4 4 4 4 3 3 3 3 3 3 3 2 1 1 1 1 1
5 5 6 6 6 6 6 6 6 6 6 6 6 5 5 4 4 4 4 4 4 4 4 4 4 4 4 4 4 4 4 4 3 4 3 3 2 1 1 1 1 1
5 5 5 6 6 6 6 6 6 6 6 5 5 5 4 4 4 4 4 4 4 4 4 4 3 3 4 4 4 4 4 4 4 4 3 3 2 2 2 1 1 1

ECMWFNIL_850_temp_102.txt.gz
Temp
11 11 11 11 11 11 11 10 9 9 8 8 8 8 8 8 9 9 9 9 10 10 10 10 10 10 11 11 11 11 11 11 11 11 10 10 10 10 9 9 9 8
11 11 12 12 11 11 10 10 9 8 8 7 7 7 7 8 9 9 9 9 9 9 9 10 10 10 10 10 10 10 11 11 10 10 9 9 9 9 9 8 8 7
12 12 12 11 11 10 10 9 8 8 7 7 6 7 8 8 9 9 9 8 8 8 9 9 9 10 10 10 10 10 10 10 10 9 9 9 9 8 8 7 7 6
12 12 11 11 10 10 9 8 8 7 7 6 6 7 8 8 9 8 8 8 8 8 8 9 9 9 9 9 9 9 9 9 9 9 9 9 8 8 7 6 6 6
12 11 11 10 9 9 8 8 7 7 6 6 6 7 8 8 8 8 7 7 7 8 8 9 9 9 9 8 8 9 9 9 9 8 8 8 8 7 6 5 5 5
11 11 10 9 9 8 8 7 7 6 6 6 7 8 8 8 8 7 7 7 7 8 8 8 8 8 8 8 8 8 8 8 8 8 8 8 7 6 6 5 5 5
11 10 9 9 8 8 7 7 6 6 6 6 7 8 8 8 7 7 7 7 7 8 8 8 8 7 7 8 8 8 8 8 8 7 7 7 6 6 5 5 5 5
10 10 9 9 8 7 7 6 6 6 6 6 7 8 8 7 7 7 7 7 7 7 8 7 7 7 7 7 8 8 8 7 7 7 7 6 6 5 5 4 4 4
10 10 9 8 7 7 7 6 6 6 6 6 7 7 8 7 7 7 7 7 7 7 7 7 7 7 7 7 8 8 7 7 6 6 6 6 5 5 5 4 4 4
10 10 9 8 7 7 6 6 6 6 6 7 7 8 8 8 7 7 7 7 7 7 7 7 7 7 7 7 7 8 7 7 6 6 5 5 5 5 4 4 4 4
10 10 9 8 7 6 6 6 6 6 6 7 7 7 8 7 7 7 7 7 7 7 7 7 7 7 7 7 7 7 7 7 6 6 5 5 5 4 4 4 4 4
10 9 9 8 7 6 6 5 6 6 7 8 7 7 7 7 7 7 7 7 7 7 7 7 7 7 7 7 7 7 7 7 6 5 5 5 5 4 4 3 3 3
9 8 8 8 7 6 6 6 6 7 8 8 7 7 7 7 7 7 7 7 7 7 7 7 7 7 7 7 7 7 7 7 6 5 5 5 4 4 3 3 3 2
9 8 8 7 6 6 6 6 7 8 8 8 7 7 7 7 7 7 7 7 7 7 7 7 7 7 7 7 7 7 7 7 6 5 5 4 4 3 3 3 2 2
9 8 7 7 6 6 6 7 7 8 8 7 7 6 7 7 7 7 7 7 7 7 7 7 7 6 6 6 7 7 7 7 6 5 5 4 4 3 3 3 2 2
8 8 7 6 6 6 6 7 7 8 7 6 6 6 7 7 7 7 7 7 7 7 7 7 7 6 6 6 6 7 7 6 6 5 4 4 3 3 3 2 2 2
7 7 6 6 6 6 6 6 7 7 7 6 6 6 7 7 7 7 7 7 7 7 7 7 7 6 6 6 6 6 6 6 6 5 4 4 3 3 3 2 2 1
7 7 6 6 5 5 6 6 7 7 7 6 6 6 6 6 7 7 7 7 7 7 7 7 7 6 6 6 6 6 6 6 5 5 4 4 3 3 2 2 2 1
7 7 6 6 5 6 6 6 7 7 7 6 6 6 6 6 6 7 7 7 7 7 7 7 6 6 6 6 6 6 6 6 5 5 4 4 3 3 2 2 2 1
7 6 6 6 6 6 6 6 7 7 6 6 6 6 6 6 6 6 6 6 7 7 6 6 6 6 6 6 6 6 6 6 5 5 5 4 4 3 2 2 2 1
6 6 6 6 6 6 5 6 6 6 6 6 6 6 6 6 6 6 6 6 6 6 6 6 6 6 6 6 6 6 6 6 5 5 5 4 4 3 3 2 2 2
6 6 6 6 6 5 5 5 6 5 5 5 5 5 5 6 6 6 6 6 6 6 6 6 6 6 6 6 6 6 6 6 5 5 5 5 4 4 3 2 2 2
6 6 6 6 5 5 5 6 5 5 5 5 5 5 5 5 6 6 6 6 6 6 5 5 5 5 5 5 6 6 6 6 6 6 5 5 4 4 3 2 2 2
6 6 6 6 5 5 5 5 5 5 5 5 5 5 5 5 5 5 5 5 5 5 5 5 5 5 5 5 6 6 6 6 6 6 5 5 5 4 3 2 2 1
6 6 6 6 5 5 5 5 5 5 5 5 4 4 5 5 5 5 5 5 5 5 5 5 5 5 5 5 6 6 6 6 6 6 5 5 4 4 3 2 2 1
7 6 6 6 6 5 5 5 5 5 5 4 4 4 4 5 5 5 5 5 5 5 4 4 4 4 5 5 5 5 6 6 6 5 5 5 4 3 3 2 2 1

ECMWFNIL_850_temp_105.txt.gz
Temp
12 11 11 11 11 11 11 11 11 10 10 9 9 9 8 8 8 9 9 9 9 9 9 9 9 9 9 9 9 9 10 10 11 10 10 11 11 11 11 10 10 10
11 11 11 11 11 11 11 11 11 10 10 9 8 8 8 8 8 9 9 9 9 8 8 8 8 8 9 9 9 9 10 10 10 10 10 10 10 10 10 9 9 9
11 11 11 11 11 11 11 11 10 10 9 8 8 8 8 8 8 9 9 8 8 8 8 8 8 8 8 8 9 9 9 10 10 9 9 10 9 9 9 8 8 8
11 11 11 11 11 11 11 10 10 9 8 8 8 8 9 8 8 9 8 8 8 8 8 8 8 8 8 8 9 9 9 9 9 9 9 9 8 8 8 7 7 7
11 11 11 11 11 11 11 10 9 8 8 8 8 8 8 8 8 8 8 8 8 8 8 8 7 7 8 8 8 9 9 9 8 8 8 8 8 7 7 7 7 7
11 12 12 11 11 11 10 10 9 8 8 8 8 8 8 8 8 8 8 8 8 8 8 7 7 8 8 8 8 8 8 8 8 7 7 7 7 7 6 6 6 6
12 12 12 11 11 10 10 9 8 8 8 8 8 8 8 8 8 8 8 8 8 8 8 7 7 7 8 8 8 8 8 8 7 6 7 7 6 6 6 6 6 6
12 12 11 11 11 10 10 9 8 8 8 8 8 8 8 8 8 8 8 8 8 8 8 7 7 7 7 7 7 7 7 7 6 6 6 6 6 6 6 6 6 6
12 11 11 11 10 10 10 9 8 8 8 8 8 8 8 8 8 8 8 8 8 8 7 7 7 7 7 7 7 7 7 6 6 6 6 6 6 6 6 6 6 6
11 11 11 11 10 10 10 9 8 8 8 8 7 7 8 8 8 8 8 8 8 8 7 7 7 7 7 7 6 6 6 6 6 5 5 5 5 6 6 6 6 6
11 11 10 10 10 10 9 8 7 8 8 7 7 7 8 8 8 8 8 8 8 7 7 7 7 7 7 6 6 6 6 6 6 5 5 5 5 6 6 6 6 6
11 11 10 10 10 9 8 7 7 7 7 7 7 7 8 8 8 8 8 8 7 7 7 7 7 7 6 6 6 6 5 6 6 5 5 5 5 6 6 6 6 5
11 10 10 10 9 8 7 7 7 7 7 7 7 7 7 8 8 8 7 8 7 7 7 7 7 7 6 6 6 5 5 5 5 5 5 5 5 5 5 5 5 5
10 10 10 9 8 7 7 7 7 6 7 7 7 7 7 7 7 7 7 8 8 7 7 7 6 6 6 6 6 6 5 5 5 5 4 4 5 5 5 5 5 5
10 10 9 8 7 6 6 7 6 6 6 7 7 7 7 7 7 7 7 8 8 8 7 7 6 6 6 6 6 6 5 5 5 4 4 4 4 5 5 4 4 4
10 9 9 8 7 6 6 6 5 5 6 6 6 6 7 7 7 7 7 8 8 8 7 7 6 6 6 6 6 6 5 5 5 4 4 4 4 4 4 4 4 4
10 9 8 8 7 6 6 6 5 5 5 5 6 6 7 7 7 7 7 8 7 7 7 6 6 6 6 6 6 6 5 5 4 4 4 4 4 4 4 4 4 4
10 9 8 7 7 7 7 7 6 5 5 5 6 7 7 7 7 7 7 8 7 7 6 6 6 6 6 6 6 5 5 5 5 5 4 4 4 4 4 4 4 4
10 9 8 8 7 7 7 7 6 6 6 5 5 6 7 7 7 7 7 7 7 7 6 6 6 6 6 6 6 5 5 5 5 5 5 4 4 4 4 4 4 5
10 9 9 8 7 7 7 7 6 6 5 5 5 6 7 7 7 7 7 7 7 6 6 6 6 6 5 5 5 5 5 5 5 5 5 5 5 4 4 4 4 5
9 9 8 8 7 7 7 7 6 6 5 5 5 6 6 7 7 7 7 7 6 6 6 6 5 5 5 5 5 5 5 5 5 5 5 5 5 4 4 4 5 4
9 8 7 7 7 7 6 6 6 5 5 5 5 6 6 6 6 6 6 6 6 6 6 5 5 5 5 5 5 5 5 5 5 5 5 5 5 4 4 5 4 4
8 7 7 7 6 6 6 6 6 5 5 5 6 6 6 6 6 6 6 6 6 6 6 5 6 6 6 6 6 6 5 5 5 5 5 5 5 5 5 5 4 4
9 8 7 7 7 6 6 6 5 5 5 5 6 6 6 6 6 6 5 5 5 6 6 6 6 6 6 6 6 6 6 5 5 5 5 5 5 5 5 4 4 4
8 8 7 7 7 6 6 6 5 5 5 6 5 5 6 6 6 5 5 5 5 6 6 6 6 6 6 6 6 6 6 6 5 5 5 5 5 5 5 4 4 4
8 7 7 7 7 6 6 6 5 5 5 5 5 5 5 5 5 5 5 5 5 5 5 5 5 5 5 5 6 6 6 6 5 5 5 5 5 5 4 4 4 3